| time (UTC) | temp C | wind direction | speed KPH | gust KPH | rain 1hr cm | rain 24hr cm | rain mn cm | humidity % | barometer mb |
| 20260504081551 | 12 | 0 | 0.0 | 1.6 | 0.00 | 0.00 | 0.00 | 68 | 1013.7 |
| 20260504044542 | 12 | 217 | 0.0 | 1.6 | 0.00 | 0.00 | 0.00 | 65 | 1014.8 |
| 20260504043042 | 12 | 215 | 0.0 | 1.6 | 0.00 | 0.00 | 0.00 | 64 | 1015.0 |
| 20260504041546 | 12 | 215 | 0.0 | 1.6 | 0.00 | 0.00 | 0.00 | 65 | 1015.1 |
| 20260504040107 | 11 | 208 | 0.0 | 1.6 | 0.00 | 0.00 | 0.00 | 67 | 1015.3 |
| 20260504034545 | 11 | 0 | 0.0 | 0.0 | 0.00 | 0.00 | 0.00 | 72 | 1015.5 |
| 20260504033047 | 11 | 0 | 0.0 | 0.0 | 0.00 | 0.00 | 0.00 | 71 | 1015.6 |
| 20260504031542 | 11 | 0 | 0.0 | 0.0 | 0.00 | 0.00 | 0.00 | 69 | 1015.6 |
| 20260504030049 | 11 | 0 | 0.0 | 1.6 | 0.00 | 0.00 | 0.00 | 71 | 1015.7 |
| 20260504024547 | 12 | 0 | 0.0 | 0.0 | 0.00 | 0.00 | 0.00 | 70 | 1015.7 |
| 20260504023053 | 13 | 0 | 0.0 | 0.0 | 0.00 | 0.00 | 0.00 | 62 | 1015.6 |
| 20260504021542 | 13 | 207 | 0.0 | 1.6 | 0.00 | 0.00 | 0.00 | 61 | 1015.3 |
| 20260504020042 | 13 | 247 | 0.0 | 1.6 | 0.00 | 0.00 | 0.00 | 61 | 1015.3 |
| 20260504014559 | 13 | 247 | 0.0 | 1.6 | 0.00 | 0.00 | 0.00 | 61 | 1015.2 |
| 20260504013046 | 13 | 0 | 0.0 | 0.0 | 0.00 | 0.00 | 0.00 | 60 | 1015.0 |
| 20260504011543 | 13 | 0 | 0.0 | 1.6 | 0.00 | 0.00 | 0.00 | 61 | 1014.9 |
| 20260504010054 | 14 | 247 | 0.0 | 1.6 | 0.00 | 0.00 | 0.00 | 59 | 1015.1 |
| 20260504004549 | 15 | 0 | 0.0 | 0.0 | 0.00 | 0.00 | 0.00 | 57 | 1015.4 |
| 20260504003055 | 16 | 0 | 0.0 | 0.0 | 0.00 | 0.00 | 0.00 | 52 | 1015.3 |
| 20260504001601 | 17 | 0 | 0.0 | 1.6 | 0.00 | 0.00 | 0.00 | 47 | 1015.4 |
| 20260504000047 | 17 | 0 | 0.0 | 1.6 | 0.00 | 0.00 | 0.00 | 44 | 1015.3 |
| 20260503234544 | 17 | 247 | 0.0 | 1.6 | 0.00 | 0.00 | 0.00 | 44 | 1015.5 |
| 20260503233048 | 18 | 243 | 0.0 | 3.2 | 0.00 | 0.00 | 0.00 | 45 | 1015.8 |
| 20260503231548 | 18 | 0 | 0.0 | 1.6 | 0.00 | 0.00 | 0.00 | 44 | 1015.9 |
| 20260503230047 | 18 | 253 | 0.0 | 4.8 | 0.00 | 0.00 | 0.00 | 42 | 1015.9 |
| 20260503224546 | 18 | 282 | 1.6 | 4.8 | 0.00 | 0.00 | 0.00 | 41 | 1016.0 |
| 20260503223050 | 18 | 282 | 1.6 | 4.8 | 0.00 | 0.00 | 0.00 | 40 | 1016.0 |
| 20260503221553 | 18 | 234 | 0.0 | 3.2 | 0.00 | 0.00 | 0.00 | 41 | 1016.3 |
| 20260503220044 | 19 | 256 | 3.2 | 4.8 | 0.00 | 0.00 | 0.00 | 39 | 1016.5 |
| 20260503214547 | 18 | 243 | 1.6 | 4.8 | 0.00 | 0.00 | 0.00 | 41 | 1016.7 |
| 20260503213040 | 18 | 267 | 1.6 | 4.8 | 0.00 | 0.00 | 0.00 | 43 | 1017.0 |
| 20260503211545 | 18 | 250 | 0.0 | 4.8 | 0.00 | 0.00 | 0.00 | 41 | 1017.1 |
| 20260503210044 | 18 | 260 | 3.2 | 4.8 | 0.00 | 0.00 | 0.00 | 39 | 1017.5 |
| 20260503204543 | 18 | 195 | 1.6 | 6.4 | 0.00 | 0.00 | 0.00 | 42 | 1017.5 |
| 20260503203047 | 18 | 285 | 1.6 | 4.8 | 0.00 | 0.00 | 0.00 | 43 | 1017.8 |
| 20260503201546 | 18 | 237 | 0.0 | 4.8 | 0.00 | 0.00 | 0.00 | 42 | 1018.1 |
| 20260503200050 | 18 | 271 | 1.6 | 4.8 | 0.00 | 0.00 | 0.00 | 42 | 1018.5 |
| 20260503194543 | 18 | 257 | 1.6 | 4.8 | 0.00 | 0.00 | 0.00 | 42 | 1018.7 |
| 20260503193054 | 18 | 265 | 3.2 | 6.4 | 0.00 | 0.00 | 0.00 | 39 | 1019.0 |
| 20260503191546 | 18 | 328 | 3.2 | 4.8 | 0.00 | 0.00 | 0.00 | 38 | 1019.2 |
| 20260503190051 | 18 | 199 | 0.0 | 4.8 | 0.00 | 0.00 | 0.00 | 41 | 1019.4 |
| 20260503184556 | 18 | 219 | 1.6 | 4.8 | 0.00 | 0.00 | 0.00 | 39 | 1019.6 |
| 20260503183107 | 18 | 0 | 0.0 | 4.8 | 0.00 | 0.00 | 0.00 | 38 | 1019.9 |
| 20260503181614 | 18 | 0 | 0.0 | 4.8 | 0.00 | 0.00 | 0.00 | 42 | 1019.9 |
| 20260503180047 | 17 | 283 | 0.0 | 4.8 | 0.00 | 0.00 | 0.00 | 43 | 1020.3 |
| 20260503174544 | 17 | 257 | 1.6 | 4.8 | 0.00 | 0.00 | 0.00 | 43 | 1020.3 |
| 20260503173055 | 17 | 153 | 0.0 | 4.8 | 0.00 | 0.00 | 0.00 | 43 | 1020.4 |
| 20260503171542 | 16 | 0 | 1.6 | 3.2 | 0.00 | 0.00 | 0.00 | 47 | 1020.6 |